Location: Most
(50.5133°N, 13.6207°E)
Time: 23:35:20
(UTC+01:00)

ISS - Pass Details

Date: 14 January 2018
Orbit: 402 x 407 km, 51.6° (Epoch: 22 January)

Event Time Altitude Azimuth Distance (km) Brightness Sun altitude
Exits shadow 06:16:30 17° 221° (SW) 1,114 -1.9 -16.0°
Maximum altitude 06:16:34 17° 219° (SW) 1,113 -1.9 -16.0°
Drops below altitude 10° 06:18:47 10° 177° (S) 1,461 -0.8 -15.6°
Sets 06:21:20 0° 156° (SSE) 2,317 0.6 -15.2°
